Location: ??????
(55.6130°N, 37.7882°E)
Time: 04:12:18
(UTC+00:00)

DMSP B5D2-2 - Pass Details

Date: 14 April 2024
Orbit: 788 x 802 km, 98.3° (Epoch: 20 May)

Event Time Altitude Azimuth Distance (km) Brightness Sun altitude
Rises 01:42:14 0° 180° (S) 3,275 7.0 -6.5°
Reaches altitude 10° 01:44:37 10° 186° (S) 2,350 6.2 -6.2°
Maximum altitude 01:49:38 48° 261° (W) 1,026 4.3 -5.6°
Drops below altitude 10° 01:54:41 10° 336° (NNW) 2,365 6.6 -4.9°
Sets 01:57:07 0° 342° (NNW) 3,300 7.4 -4.6°
